Location: Bauerbach
(50.4985°N, 10.3912°E)
Time: 12:05:34
(UTC+00:00)

GRACE-FO 1 - Pass Details

Date: 13 January 2026
Orbit: 448 x 461 km, 89.0° (Epoch: 16 February)

Event Time Altitude Azimuth Distance (km) Brightness Sun altitude
Rises 06:30:36 0° 182° (S) 2,447 8.5 -6.9°
Reaches altitude 10° 06:32:38 10° 184° (S) 1,583 7.5 -6.6°
Maximum altitude 06:36:03 75° 269° (W) 477 4.4 -6.1°
Drops below altitude 10° 06:39:32 10° 357° (N) 1,606 6.9 -5.6°
Sets 06:41:37 0° 359° (N) 2,489 7.9 -5.3°
